Index of /20260430/WXO-DD/model_gdps/15km/00/105
Name Last modified Size Description
Parent Directory -
20260430T00Z_MSC_GDPS_AbsoluteVorticity_IsbL-0200_LatLon0.15_PT105H.grib2 2026-04-30 04:29 1.5M
20260430T00Z_MSC_GDPS_AbsoluteVorticity_IsbL-0250_LatLon0.15_PT105H.grib2 2026-04-30 04:29 1.6M
20260430T00Z_MSC_GDPS_AbsoluteVorticity_IsbL-0500_LatLon0.15_PT105H.grib2 2026-04-30 04:29 1.4M
20260430T00Z_MSC_GDPS_AbsoluteVorticity_IsbL-0700_LatLon0.15_PT105H.grib2 2026-04-30 04:29 1.3M
20260430T00Z_MSC_GDPS_AbsoluteVorticity_IsbL-0850_LatLon0.15_PT105H.grib2 2026-04-30 04:29 1.6M
20260430T00Z_MSC_GDPS_AirTemp_AGL-120m_LatLon0.15_PT105H.grib2 2026-04-30 04:29 902K
20260430T00Z_MSC_GDPS_AirTemp_AGL-2m_LatLon0.15_PT105H.grib2 2026-04-30 04:29 1.0M
20260430T00Z_MSC_GDPS_AirTemp_AGL-40m_LatLon0.15_PT105H.grib2 2026-04-30 04:29 804K
20260430T00Z_MSC_GDPS_AirTemp_AGL-80m_LatLon0.15_PT105H.grib2 2026-04-30 04:29 910K
20260430T00Z_MSC_GDPS_AirTemp_IsbL-0001_LatLon0.15_PT105H.grib2 2026-04-30 04:29 648K
20260430T00Z_MSC_GDPS_AirTemp_IsbL-0005_LatLon0.15_PT105H.grib2 2026-04-30 04:29 682K
20260430T00Z_MSC_GDPS_AirTemp_IsbL-0010_LatLon0.15_PT105H.grib2 2026-04-30 04:29 688K
20260430T00Z_MSC_GDPS_AirTemp_IsbL-0020_LatLon0.15_PT105H.grib2 2026-04-30 04:29 787K
20260430T00Z_MSC_GDPS_AirTemp_IsbL-0030_LatLon0.15_PT105H.grib2 2026-04-30 04:29 836K
20260430T00Z_MSC_GDPS_AirTemp_IsbL-0050_LatLon0.15_PT105H.grib2 2026-04-30 04:29 811K
20260430T00Z_MSC_GDPS_AirTemp_IsbL-0100_LatLon0.15_PT105H.grib2 2026-04-30 04:29 968K
20260430T00Z_MSC_GDPS_AirTemp_IsbL-0150_LatLon0.15_PT105H.grib2 2026-04-30 04:29 966K
20260430T00Z_MSC_GDPS_AirTemp_IsbL-0175_LatLon0.15_PT105H.grib2 2026-04-30 04:29 954K
20260430T00Z_MSC_GDPS_AirTemp_IsbL-0200_LatLon0.15_PT105H.grib2 2026-04-30 04:29 972K
20260430T00Z_MSC_GDPS_AirTemp_IsbL-0225_LatLon0.15_PT105H.grib2 2026-04-30 04:29 1.0M
20260430T00Z_MSC_GDPS_AirTemp_IsbL-0250_LatLon0.15_PT105H.grib2 2026-04-30 04:29 1.0M
20260430T00Z_MSC_GDPS_AirTemp_IsbL-0275_LatLon0.15_PT105H.grib2 2026-04-30 04:29 1.0M
20260430T00Z_MSC_GDPS_AirTemp_IsbL-0300_LatLon0.15_PT105H.grib2 2026-04-30 04:29 941K
20260430T00Z_MSC_GDPS_AirTemp_IsbL-0350_LatLon0.15_PT105H.grib2 2026-04-30 04:29 922K
20260430T00Z_MSC_GDPS_AirTemp_IsbL-0400_LatLon0.15_PT105H.grib2 2026-04-30 04:29 937K
20260430T00Z_MSC_GDPS_AirTemp_IsbL-0450_LatLon0.15_PT105H.grib2 2026-04-30 04:29 961K
20260430T00Z_MSC_GDPS_AirTemp_IsbL-0500_LatLon0.15_PT105H.grib2 2026-04-30 04:29 1.0M
20260430T00Z_MSC_GDPS_AirTemp_IsbL-0550_LatLon0.15_PT105H.grib2 2026-04-30 04:29 798K
20260430T00Z_MSC_GDPS_AirTemp_IsbL-0600_LatLon0.15_PT105H.grib2 2026-04-30 04:29 888K
20260430T00Z_MSC_GDPS_AirTemp_IsbL-0650_LatLon0.15_PT105H.grib2 2026-04-30 04:29 914K
20260430T00Z_MSC_GDPS_AirTemp_IsbL-0700_LatLon0.15_PT105H.grib2 2026-04-30 04:29 950K
20260430T00Z_MSC_GDPS_AirTemp_IsbL-0750_LatLon0.15_PT105H.grib2 2026-04-30 04:29 1.0M
20260430T00Z_MSC_GDPS_AirTemp_IsbL-0800_LatLon0.15_PT105H.grib2 2026-04-30 04:29 1.1M
20260430T00Z_MSC_GDPS_AirTemp_IsbL-0850_LatLon0.15_PT105H.grib2 2026-04-30 04:29 1.1M
20260430T00Z_MSC_GDPS_AirTemp_IsbL-0875_LatLon0.15_PT105H.grib2 2026-04-30 04:29 1.2M
20260430T00Z_MSC_GDPS_AirTemp_IsbL-0900_LatLon0.15_PT105H.grib2 2026-04-30 04:29 1.2M
20260430T00Z_MSC_GDPS_AirTemp_IsbL-0925_LatLon0.15_PT105H.grib2 2026-04-30 04:29 1.1M
20260430T00Z_MSC_GDPS_AirTemp_IsbL-0950_LatLon0.15_PT105H.grib2 2026-04-30 04:29 1.1M
20260430T00Z_MSC_GDPS_AirTemp_IsbL-0970_LatLon0.15_PT105H.grib2 2026-04-30 04:29 1.1M
20260430T00Z_MSC_GDPS_AirTemp_IsbL-0985_LatLon0.15_PT105H.grib2 2026-04-30 04:29 1.1M
20260430T00Z_MSC_GDPS_AirTemp_IsbL-1000_LatLon0.15_PT105H.grib2 2026-04-30 04:29 1.1M
20260430T00Z_MSC_GDPS_AirTemp_IsbL-1015_LatLon0.15_PT105H.grib2 2026-04-30 04:29 1.1M
20260430T00Z_MSC_GDPS_Albedo_Sfc_LatLon0.15_PT105H.grib2 2026-04-30 04:29 241K
20260430T00Z_MSC_GDPS_CAPE_Sfc_LatLon0.15_PT105H.grib2 2026-04-30 04:29 3.9M
20260430T00Z_MSC_GDPS_CIN_Sfc_LatLon0.15_PT105H.grib2 2026-04-30 04:29 2.9M
20260430T00Z_MSC_GDPS_CloudWater_EAtm_LatLon0.15_PT105H.grib2 2026-04-30 04:29 531K
20260430T00Z_MSC_GDPS_ConvectivePrecip-Accum_Sfc_LatLon0.15_PT105H.grib2 2026-04-30 04:29 3.4M
20260430T00Z_MSC_GDPS_DewPointDepression_AGL-2m_LatLon0.15_PT105H.grib2 2026-04-30 04:29 762K
20260430T00Z_MSC_GDPS_DewPointDepression_IsbL-0010_LatLon0.15_PT105H.grib2 2026-04-30 04:29 69K
20260430T00Z_MSC_GDPS_DewPointDepression_IsbL-0020_LatLon0.15_PT105H.grib2 2026-04-30 04:29 76K
20260430T00Z_MSC_GDPS_DewPointDepression_IsbL-0030_LatLon0.15_PT105H.grib2 2026-04-30 04:29 86K
20260430T00Z_MSC_GDPS_DewPointDepression_IsbL-0050_LatLon0.15_PT105H.grib2 2026-04-30 04:29 386K
20260430T00Z_MSC_GDPS_DewPointDepression_IsbL-0100_LatLon0.15_PT105H.grib2 2026-04-30 04:29 402K
20260430T00Z_MSC_GDPS_DewPointDepression_IsbL-0150_LatLon0.15_PT105H.grib2 2026-04-30 04:29 470K
20260430T00Z_MSC_GDPS_DewPointDepression_IsbL-0175_LatLon0.15_PT105H.grib2 2026-04-30 04:29 577K
20260430T00Z_MSC_GDPS_DewPointDepression_IsbL-0200_LatLon0.15_PT105H.grib2 2026-04-30 04:29 678K
20260430T00Z_MSC_GDPS_DewPointDepression_IsbL-0225_LatLon0.15_PT105H.grib2 2026-04-30 04:29 770K
20260430T00Z_MSC_GDPS_DewPointDepression_IsbL-0250_LatLon0.15_PT105H.grib2 2026-04-30 04:29 854K
20260430T00Z_MSC_GDPS_DewPointDepression_IsbL-0275_LatLon0.15_PT105H.grib2 2026-04-30 04:29 870K
20260430T00Z_MSC_GDPS_DewPointDepression_IsbL-0300_LatLon0.15_PT105H.grib2 2026-04-30 04:29 912K
20260430T00Z_MSC_GDPS_DewPointDepression_IsbL-0350_LatLon0.15_PT105H.grib2 2026-04-30 04:29 946K
20260430T00Z_MSC_GDPS_DewPointDepression_IsbL-0400_LatLon0.15_PT105H.grib2 2026-04-30 04:29 1.0M
20260430T00Z_MSC_GDPS_DewPointDepression_IsbL-0450_LatLon0.15_PT105H.grib2 2026-04-30 04:29 1.0M
20260430T00Z_MSC_GDPS_DewPointDepression_IsbL-0500_LatLon0.15_PT105H.grib2 2026-04-30 04:29 1.0M
20260430T00Z_MSC_GDPS_DewPointDepression_IsbL-0550_LatLon0.15_PT105H.grib2 2026-04-30 04:29 1.0M
20260430T00Z_MSC_GDPS_DewPointDepression_IsbL-0600_LatLon0.15_PT105H.grib2 2026-04-30 04:29 1.0M
20260430T00Z_MSC_GDPS_DewPointDepression_IsbL-0650_LatLon0.15_PT105H.grib2 2026-04-30 04:29 1.1M
20260430T00Z_MSC_GDPS_DewPointDepression_IsbL-0700_LatLon0.15_PT105H.grib2 2026-04-30 04:29 1.1M
20260430T00Z_MSC_GDPS_DewPointDepression_IsbL-0750_LatLon0.15_PT105H.grib2 2026-04-30 04:29 1.1M
20260430T00Z_MSC_GDPS_DewPointDepression_IsbL-0800_LatLon0.15_PT105H.grib2 2026-04-30 04:29 1.2M
20260430T00Z_MSC_GDPS_DewPointDepression_IsbL-0850_LatLon0.15_PT105H.grib2 2026-04-30 04:29 1.2M
20260430T00Z_MSC_GDPS_DewPointDepression_IsbL-0875_LatLon0.15_PT105H.grib2 2026-04-30 04:29 1.1M
20260430T00Z_MSC_GDPS_DewPointDepression_IsbL-0900_LatLon0.15_PT105H.grib2 2026-04-30 04:29 1.1M
20260430T00Z_MSC_GDPS_DewPointDepression_IsbL-0925_LatLon0.15_PT105H.grib2 2026-04-30 04:29 1.0M
20260430T00Z_MSC_GDPS_DewPointDepression_IsbL-0950_LatLon0.15_PT105H.grib2 2026-04-30 04:29 1.0M
20260430T00Z_MSC_GDPS_DewPointDepression_IsbL-0970_LatLon0.15_PT105H.grib2 2026-04-30 04:29 1.0M
20260430T00Z_MSC_GDPS_DewPointDepression_IsbL-0985_LatLon0.15_PT105H.grib2 2026-04-30 04:29 1.0M
20260430T00Z_MSC_GDPS_DewPointDepression_IsbL-1000_LatLon0.15_PT105H.grib2 2026-04-30 04:29 970K
20260430T00Z_MSC_GDPS_DewPointDepression_IsbL-1015_LatLon0.15_PT105H.grib2 2026-04-30 04:29 914K
20260430T00Z_MSC_GDPS_DewPoint_AGL-2m_LatLon0.15_PT105H.grib2 2026-04-30 04:29 611K
20260430T00Z_MSC_GDPS_DownwardLongwaveRadiationFlux-Accum_Sfc_LatLon0.15_PT105H.grib2 2026-04-30 04:29 776K
20260430T00Z_MSC_GDPS_DownwardShortwaveRadiationFlux-Accum_NTAtm_LatLon0.15_PT105H.grib2 2026-04-30 04:29 289K
20260430T00Z_MSC_GDPS_DownwardShortwaveRadiationFlux-Accum_Sfc_LatLon0.15_PT105H.grib2 2026-04-30 04:29 1.0M
20260430T00Z_MSC_GDPS_FreezingRain-Accum1h_Sfc_LatLon0.15_PT105H.grib2 2026-04-30 04:29 37K
20260430T00Z_MSC_GDPS_FreezingRain-Accum3h_Sfc_LatLon0.15_PT105H.grib2 2026-04-30 04:29 37K
20260430T00Z_MSC_GDPS_FreezingRain-Accum_Sfc_LatLon0.15_PT105H.grib2 2026-04-30 04:29 368K
20260430T00Z_MSC_GDPS_GeopotentialHeight_IsbL-0001_LatLon0.15_PT105H.grib2 2026-04-30 04:29 420K
20260430T00Z_MSC_GDPS_GeopotentialHeight_IsbL-0005_LatLon0.15_PT105H.grib2 2026-04-30 04:29 483K
20260430T00Z_MSC_GDPS_GeopotentialHeight_IsbL-0010_LatLon0.15_PT105H.grib2 2026-04-30 04:29 471K
20260430T00Z_MSC_GDPS_GeopotentialHeight_IsbL-0020_LatLon0.15_PT105H.grib2 2026-04-30 04:29 412K
20260430T00Z_MSC_GDPS_GeopotentialHeight_IsbL-0030_LatLon0.15_PT105H.grib2 2026-04-30 04:29 571K
20260430T00Z_MSC_GDPS_GeopotentialHeight_IsbL-0050_LatLon0.15_PT105H.grib2 2026-04-30 04:29 572K
20260430T00Z_MSC_GDPS_GeopotentialHeight_IsbL-0100_LatLon0.15_PT105H.grib2 2026-04-30 04:29 607K
20260430T00Z_MSC_GDPS_GeopotentialHeight_IsbL-0150_LatLon0.15_PT105H.grib2 2026-04-30 04:29 626K
20260430T00Z_MSC_GDPS_GeopotentialHeight_IsbL-0175_LatLon0.15_PT105H.grib2 2026-04-30 04:29 629K
20260430T00Z_MSC_GDPS_GeopotentialHeight_IsbL-0200_LatLon0.15_PT105H.grib2 2026-04-30 04:29 634K
20260430T00Z_MSC_GDPS_GeopotentialHeight_IsbL-0225_LatLon0.15_PT105H.grib2 2026-04-30 04:29 637K
20260430T00Z_MSC_GDPS_GeopotentialHeight_IsbL-0250_LatLon0.15_PT105H.grib2 2026-04-30 04:29 640K
20260430T00Z_MSC_GDPS_GeopotentialHeight_IsbL-0275_LatLon0.15_PT105H.grib2 2026-04-30 04:29 640K
20260430T00Z_MSC_GDPS_GeopotentialHeight_IsbL-0300_LatLon0.15_PT105H.grib2 2026-04-30 04:29 632K
20260430T00Z_MSC_GDPS_GeopotentialHeight_IsbL-0350_LatLon0.15_PT105H.grib2 2026-04-30 04:29 626K
20260430T00Z_MSC_GDPS_GeopotentialHeight_IsbL-0400_LatLon0.15_PT105H.grib2 2026-04-30 04:29 619K
20260430T00Z_MSC_GDPS_GeopotentialHeight_IsbL-0450_LatLon0.15_PT105H.grib2 2026-04-30 04:29 610K
20260430T00Z_MSC_GDPS_GeopotentialHeight_IsbL-0500_LatLon0.15_PT105H.grib2 2026-04-30 04:29 596K
20260430T00Z_MSC_GDPS_GeopotentialHeight_IsbL-0550_LatLon0.15_PT105H.grib2 2026-04-30 04:29 524K
20260430T00Z_MSC_GDPS_GeopotentialHeight_IsbL-0600_LatLon0.15_PT105H.grib2 2026-04-30 04:29 522K
20260430T00Z_MSC_GDPS_GeopotentialHeight_IsbL-0650_LatLon0.15_PT105H.grib2 2026-04-30 04:29 687K
20260430T00Z_MSC_GDPS_GeopotentialHeight_IsbL-0700_LatLon0.15_PT105H.grib2 2026-04-30 04:29 682K
20260430T00Z_MSC_GDPS_GeopotentialHeight_IsbL-0750_LatLon0.15_PT105H.grib2 2026-04-30 04:29 693K
20260430T00Z_MSC_GDPS_GeopotentialHeight_IsbL-0800_LatLon0.15_PT105H.grib2 2026-04-30 04:29 704K
20260430T00Z_MSC_GDPS_GeopotentialHeight_IsbL-0850_LatLon0.15_PT105H.grib2 2026-04-30 04:29 711K
20260430T00Z_MSC_GDPS_GeopotentialHeight_IsbL-0875_LatLon0.15_PT105H.grib2 2026-04-30 04:29 717K
20260430T00Z_MSC_GDPS_GeopotentialHeight_IsbL-0900_LatLon0.15_PT105H.grib2 2026-04-30 04:29 727K
20260430T00Z_MSC_GDPS_GeopotentialHeight_IsbL-0925_LatLon0.15_PT105H.grib2 2026-04-30 04:29 733K
20260430T00Z_MSC_GDPS_GeopotentialHeight_IsbL-0950_LatLon0.15_PT105H.grib2 2026-04-30 04:29 740K
20260430T00Z_MSC_GDPS_GeopotentialHeight_IsbL-0970_LatLon0.15_PT105H.grib2 2026-04-30 04:29 750K
20260430T00Z_MSC_GDPS_GeopotentialHeight_IsbL-0985_LatLon0.15_PT105H.grib2 2026-04-30 04:29 766K
20260430T00Z_MSC_GDPS_GeopotentialHeight_IsbL-1000_LatLon0.15_PT105H.grib2 2026-04-30 04:29 786K
20260430T00Z_MSC_GDPS_GeopotentialHeight_IsbL-1015_LatLon0.15_PT105H.grib2 2026-04-30 04:29 809K
20260430T00Z_MSC_GDPS_Humidex_Sfc_LatLon0.15_PT105H.grib2 2026-04-30 04:29 5.3M
20260430T00Z_MSC_GDPS_IcePellets-Accum1h_Sfc_LatLon0.15_PT105H.grib2 2026-04-30 04:29 6.2K
20260430T00Z_MSC_GDPS_IcePellets-Accum3h_Sfc_LatLon0.15_PT105H.grib2 2026-04-30 04:29 8.0K
20260430T00Z_MSC_GDPS_IcePellets-Accum_Sfc_LatLon0.15_PT105H.grib2 2026-04-30 04:29 78K
20260430T00Z_MSC_GDPS_KIndex_Sfc_LatLon0.15_PT105H.grib2 2026-04-30 04:29 6.5M
20260430T00Z_MSC_GDPS_LatentHeatNetFlux_Sfc_LatLon0.15_PT105H.grib2 2026-04-30 04:29 559K
20260430T00Z_MSC_GDPS_LiftedIndex-MU-VT_IsbL-0500_LatLon0.15_PT105H.grib2 2026-04-30 04:29 5.4M
20260430T00Z_MSC_GDPS_NetLongwaveRadiationFlux-Accum_Sfc_LatLon0.15_PT105H.grib2 2026-04-30 04:29 1.0M
20260430T00Z_MSC_GDPS_NetShortwaveRadiationFlux-Accum_Sfc_LatLon0.15_PT105H.grib2 2026-04-30 04:29 947K
20260430T00Z_MSC_GDPS_O3MixingRatio_Sfc_LatLon0.15_PT105H.grib2 2026-04-30 04:51 1.9M
20260430T00Z_MSC_GDPS_O3_EAtm_LatLon0.15_PT105H.grib2 2026-04-30 04:51 2.4M
20260430T00Z_MSC_GDPS_PlanetaryBoundaryLayerHeight_Sfc_LatLon0.15_PT105H.grib2 2026-04-30 04:29 2.5M
20260430T00Z_MSC_GDPS_Precip-Accum1h_Sfc_LatLon0.15_PT105H.grib2 2026-04-30 04:29 3.2M
20260430T00Z_MSC_GDPS_Precip-Accum3h_Sfc_LatLon0.15_PT105H.grib2 2026-04-30 04:29 3.5M
20260430T00Z_MSC_GDPS_Precip-Accum_Sfc_LatLon0.15_PT105H.grib2 2026-04-30 04:29 5.4M
20260430T00Z_MSC_GDPS_PrecipRate_Sfc_LatLon0.15_PT105H.grib2 2026-04-30 04:29 3.2M
20260430T00Z_MSC_GDPS_PrecipType-Instant_Sfc_LatLon0.15_PT105H.grib2 2026-04-30 04:29 1.6M
20260430T00Z_MSC_GDPS_Pressure_MSL_LatLon0.15_PT105H.grib2 2026-04-30 04:29 817K
20260430T00Z_MSC_GDPS_Pressure_PVU-1.5_LatLon0.15_PT105H.grib2 2026-04-30 04:29 5.8M
20260430T00Z_MSC_GDPS_Pressure_PVU-1_LatLon0.15_PT105H.grib2 2026-04-30 04:29 6.0M
20260430T00Z_MSC_GDPS_Pressure_PVU-2_LatLon0.15_PT105H.grib2 2026-04-30 04:29 5.6M
20260430T00Z_MSC_GDPS_Pressure_Sfc_LatLon0.15_PT105H.grib2 2026-04-30 04:29 1.1M
20260430T00Z_MSC_GDPS_RadiativeTemp_Sfc_LatLon0.15_PT105H.grib2 2026-04-30 04:29 507K
20260430T00Z_MSC_GDPS_Rain-Accum1h_Sfc_LatLon0.15_PT105H.grib2 2026-04-30 04:29 1.7M
20260430T00Z_MSC_GDPS_Rain-Accum3h_Sfc_LatLon0.15_PT105H.grib2 2026-04-30 04:29 1.7M
20260430T00Z_MSC_GDPS_Rain-Accum_Sfc_LatLon0.15_PT105H.grib2 2026-04-30 04:29 4.1M
20260430T00Z_MSC_GDPS_RelativeHumidity_AGL-2m_LatLon0.15_PT105H.grib2 2026-04-30 04:29 1.1M
20260430T00Z_MSC_GDPS_RelativeHumidity_IsbL-0010_LatLon0.15_PT105H.grib2 2026-04-30 04:29 141K
20260430T00Z_MSC_GDPS_RelativeHumidity_IsbL-0020_LatLon0.15_PT105H.grib2 2026-04-30 04:29 166K
20260430T00Z_MSC_GDPS_RelativeHumidity_IsbL-0030_LatLon0.15_PT105H.grib2 2026-04-30 04:29 270K
20260430T00Z_MSC_GDPS_RelativeHumidity_IsbL-0050_LatLon0.15_PT105H.grib2 2026-04-30 04:29 424K
20260430T00Z_MSC_GDPS_RelativeHumidity_IsbL-0100_LatLon0.15_PT105H.grib2 2026-04-30 04:29 501K
20260430T00Z_MSC_GDPS_RelativeHumidity_IsbL-0150_LatLon0.15_PT105H.grib2 2026-04-30 04:29 665K
20260430T00Z_MSC_GDPS_RelativeHumidity_IsbL-0175_LatLon0.15_PT105H.grib2 2026-04-30 04:29 783K
20260430T00Z_MSC_GDPS_RelativeHumidity_IsbL-0200_LatLon0.15_PT105H.grib2 2026-04-30 04:29 704K
20260430T00Z_MSC_GDPS_RelativeHumidity_IsbL-0225_LatLon0.15_PT105H.grib2 2026-04-30 04:29 786K
20260430T00Z_MSC_GDPS_RelativeHumidity_IsbL-0250_LatLon0.15_PT105H.grib2 2026-04-30 04:29 855K
20260430T00Z_MSC_GDPS_RelativeHumidity_IsbL-0275_LatLon0.15_PT105H.grib2 2026-04-30 04:29 879K
20260430T00Z_MSC_GDPS_RelativeHumidity_IsbL-0300_LatLon0.15_PT105H.grib2 2026-04-30 04:29 919K
20260430T00Z_MSC_GDPS_RelativeHumidity_IsbL-0350_LatLon0.15_PT105H.grib2 2026-04-30 04:29 945K
20260430T00Z_MSC_GDPS_RelativeHumidity_IsbL-0400_LatLon0.15_PT105H.grib2 2026-04-30 04:29 966K
20260430T00Z_MSC_GDPS_RelativeHumidity_IsbL-0450_LatLon0.15_PT105H.grib2 2026-04-30 04:29 1.0M
20260430T00Z_MSC_GDPS_RelativeHumidity_IsbL-0500_LatLon0.15_PT105H.grib2 2026-04-30 04:29 1.0M
20260430T00Z_MSC_GDPS_RelativeHumidity_IsbL-0550_LatLon0.15_PT105H.grib2 2026-04-30 04:29 1.0M
20260430T00Z_MSC_GDPS_RelativeHumidity_IsbL-0600_LatLon0.15_PT105H.grib2 2026-04-30 04:29 1.0M
20260430T00Z_MSC_GDPS_RelativeHumidity_IsbL-0650_LatLon0.15_PT105H.grib2 2026-04-30 04:29 1.1M
20260430T00Z_MSC_GDPS_RelativeHumidity_IsbL-0700_LatLon0.15_PT105H.grib2 2026-04-30 04:29 1.1M
20260430T00Z_MSC_GDPS_RelativeHumidity_IsbL-0750_LatLon0.15_PT105H.grib2 2026-04-30 04:29 1.2M
20260430T00Z_MSC_GDPS_RelativeHumidity_IsbL-0800_LatLon0.15_PT105H.grib2 2026-04-30 04:29 1.2M
20260430T00Z_MSC_GDPS_RelativeHumidity_IsbL-0850_LatLon0.15_PT105H.grib2 2026-04-30 04:29 1.3M
20260430T00Z_MSC_GDPS_RelativeHumidity_IsbL-0875_LatLon0.15_PT105H.grib2 2026-04-30 04:29 1.3M
20260430T00Z_MSC_GDPS_RelativeHumidity_IsbL-0900_LatLon0.15_PT105H.grib2 2026-04-30 04:29 1.2M
20260430T00Z_MSC_GDPS_RelativeHumidity_IsbL-0925_LatLon0.15_PT105H.grib2 2026-04-30 04:29 1.2M
20260430T00Z_MSC_GDPS_RelativeHumidity_IsbL-0950_LatLon0.15_PT105H.grib2 2026-04-30 04:29 1.2M
20260430T00Z_MSC_GDPS_RelativeHumidity_IsbL-0970_LatLon0.15_PT105H.grib2 2026-04-30 04:29 1.2M
20260430T00Z_MSC_GDPS_RelativeHumidity_IsbL-0985_LatLon0.15_PT105H.grib2 2026-04-30 04:29 1.1M
20260430T00Z_MSC_GDPS_RelativeHumidity_IsbL-1000_LatLon0.15_PT105H.grib2 2026-04-30 04:29 1.1M
20260430T00Z_MSC_GDPS_RelativeHumidity_IsbL-1015_LatLon0.15_PT105H.grib2 2026-04-30 04:29 1.0M
20260430T00Z_MSC_GDPS_RelativeVorticity_IsbL-0200_LatLon0.15_PT105H.grib2 2026-04-30 04:29 1.5M
20260430T00Z_MSC_GDPS_RelativeVorticity_IsbL-0250_LatLon0.15_PT105H.grib2 2026-04-30 04:29 1.6M
20260430T00Z_MSC_GDPS_RelativeVorticity_IsbL-0500_LatLon0.15_PT105H.grib2 2026-04-30 04:29 1.4M
20260430T00Z_MSC_GDPS_RelativeVorticity_IsbL-0700_LatLon0.15_PT105H.grib2 2026-04-30 04:29 1.6M
20260430T00Z_MSC_GDPS_RelativeVorticity_IsbL-0850_LatLon0.15_PT105H.grib2 2026-04-30 04:29 1.6M
20260430T00Z_MSC_GDPS_Runoff-Accum_Sfc_LatLon0.15_PT105H.grib2 2026-04-30 04:29 134K
20260430T00Z_MSC_GDPS_SensibleHeatNetFlux_Sfc_LatLon0.15_PT105H.grib2 2026-04-30 04:29 668K
20260430T00Z_MSC_GDPS_ShowalterIndex_IsbL-0500_LatLon0.15_PT105H.grib2 2026-04-30 04:29 6.2M
20260430T00Z_MSC_GDPS_Snow-Accum1h_Sfc_LatLon0.15_PT105H.grib2 2026-04-30 04:29 1.1M
20260430T00Z_MSC_GDPS_Snow-Accum3h_Sfc_LatLon0.15_PT105H.grib2 2026-04-30 04:29 1.0M
20260430T00Z_MSC_GDPS_Snow-Accum_Sfc_LatLon0.15_PT105H.grib2 2026-04-30 04:29 2.0M
20260430T00Z_MSC_GDPS_SnowDensity_Sfc_LatLon0.15_PT105H.grib2 2026-04-30 04:29 265K
20260430T00Z_MSC_GDPS_SnowDepth_Sfc_LatLon0.15_PT105H.grib2 2026-04-30 04:29 1.7M
20260430T00Z_MSC_GDPS_SoilTemp_DBS-0to10cm_LatLon0.15_PT105H.grib2 2026-04-30 04:29 511K
20260430T00Z_MSC_GDPS_SoilTemp_Sfc_LatLon0.15_PT105H.grib2 2026-04-30 04:29 592K
20260430T00Z_MSC_GDPS_SoilVolumetricIceContent_Sfc_LatLon0.15_PT105H.grib2 2026-04-30 04:29 196K
20260430T00Z_MSC_GDPS_SoilVolumetricWaterContent_DBS-0to10cm_LatLon0.15_PT105H.grib2 2026-04-30 04:29 589K
20260430T00Z_MSC_GDPS_SoilVolumetricWaterContent_DBS-0to1cm_LatLon0.15_PT105H.grib2 2026-04-30 04:29 653K
20260430T00Z_MSC_GDPS_SpecificHumidity_AGL-120m_LatLon0.15_PT105H.grib2 2026-04-30 04:29 1.1M
20260430T00Z_MSC_GDPS_SpecificHumidity_AGL-2m_LatLon0.15_PT105H.grib2 2026-04-30 04:29 1.2M
20260430T00Z_MSC_GDPS_SpecificHumidity_AGL-40m_LatLon0.15_PT105H.grib2 2026-04-30 04:29 1.1M
20260430T00Z_MSC_GDPS_SpecificHumidity_AGL-80m_LatLon0.15_PT105H.grib2 2026-04-30 04:29 1.1M
20260430T00Z_MSC_GDPS_SpecificHumidity_IsbL-0001_LatLon0.15_PT105H.grib2 2026-04-30 04:29 1.2M
20260430T00Z_MSC_GDPS_SpecificHumidity_IsbL-0005_LatLon0.15_PT105H.grib2 2026-04-30 04:29 1.2M
20260430T00Z_MSC_GDPS_SpecificHumidity_IsbL-0010_LatLon0.15_PT105H.grib2 2026-04-30 04:29 1.3M
20260430T00Z_MSC_GDPS_SpecificHumidity_IsbL-0020_LatLon0.15_PT105H.grib2 2026-04-30 04:29 1.3M
20260430T00Z_MSC_GDPS_SpecificHumidity_IsbL-0030_LatLon0.15_PT105H.grib2 2026-04-30 04:29 1.6M
20260430T00Z_MSC_GDPS_SpecificHumidity_IsbL-0050_LatLon0.15_PT105H.grib2 2026-04-30 04:29 1.3M
20260430T00Z_MSC_GDPS_SpecificHumidity_IsbL-0100_LatLon0.15_PT105H.grib2 2026-04-30 04:29 1.3M
20260430T00Z_MSC_GDPS_SpecificHumidity_IsbL-0150_LatLon0.15_PT105H.grib2 2026-04-30 04:29 1.3M
20260430T00Z_MSC_GDPS_SpecificHumidity_IsbL-0175_LatLon0.15_PT105H.grib2 2026-04-30 04:29 1.2M
20260430T00Z_MSC_GDPS_SpecificHumidity_IsbL-0200_LatLon0.15_PT105H.grib2 2026-04-30 04:29 1.3M
20260430T00Z_MSC_GDPS_SpecificHumidity_IsbL-0225_LatLon0.15_PT105H.grib2 2026-04-30 04:29 1.3M
20260430T00Z_MSC_GDPS_SpecificHumidity_IsbL-0250_LatLon0.15_PT105H.grib2 2026-04-30 04:29 1.4M
20260430T00Z_MSC_GDPS_SpecificHumidity_IsbL-0275_LatLon0.15_PT105H.grib2 2026-04-30 04:29 1.3M
20260430T00Z_MSC_GDPS_SpecificHumidity_IsbL-0300_LatLon0.15_PT105H.grib2 2026-04-30 04:29 1.2M
20260430T00Z_MSC_GDPS_SpecificHumidity_IsbL-0350_LatLon0.15_PT105H.grib2 2026-04-30 04:29 1.2M
20260430T00Z_MSC_GDPS_SpecificHumidity_IsbL-0400_LatLon0.15_PT105H.grib2 2026-04-30 04:29 1.4M
20260430T00Z_MSC_GDPS_SpecificHumidity_IsbL-0450_LatLon0.15_PT105H.grib2 2026-04-30 04:29 1.6M
20260430T00Z_MSC_GDPS_SpecificHumidity_IsbL-0500_LatLon0.15_PT105H.grib2 2026-04-30 04:29 1.4M
20260430T00Z_MSC_GDPS_SpecificHumidity_IsbL-0550_LatLon0.15_PT105H.grib2 2026-04-30 04:29 1.6M
20260430T00Z_MSC_GDPS_SpecificHumidity_IsbL-0600_LatLon0.15_PT105H.grib2 2026-04-30 04:29 1.7M
20260430T00Z_MSC_GDPS_SpecificHumidity_IsbL-0650_LatLon0.15_PT105H.grib2 2026-04-30 04:29 1.5M
20260430T00Z_MSC_GDPS_SpecificHumidity_IsbL-0700_LatLon0.15_PT105H.grib2 2026-04-30 04:29 1.6M
20260430T00Z_MSC_GDPS_SpecificHumidity_IsbL-0750_LatLon0.15_PT105H.grib2 2026-04-30 04:29 1.7M
20260430T00Z_MSC_GDPS_SpecificHumidity_IsbL-0800_LatLon0.15_PT105H.grib2 2026-04-30 04:29 1.8M
20260430T00Z_MSC_GDPS_SpecificHumidity_IsbL-0850_LatLon0.15_PT105H.grib2 2026-04-30 04:29 1.9M
20260430T00Z_MSC_GDPS_SpecificHumidity_IsbL-0875_LatLon0.15_PT105H.grib2 2026-04-30 04:29 1.9M
20260430T00Z_MSC_GDPS_SpecificHumidity_IsbL-0900_LatLon0.15_PT105H.grib2 2026-04-30 04:29 1.6M
20260430T00Z_MSC_GDPS_SpecificHumidity_IsbL-0925_LatLon0.15_PT105H.grib2 2026-04-30 04:29 1.6M
20260430T00Z_MSC_GDPS_SpecificHumidity_IsbL-0950_LatLon0.15_PT105H.grib2 2026-04-30 04:29 1.6M
20260430T00Z_MSC_GDPS_SpecificHumidity_IsbL-0970_LatLon0.15_PT105H.grib2 2026-04-30 04:29 1.5M
20260430T00Z_MSC_GDPS_SpecificHumidity_IsbL-0985_LatLon0.15_PT105H.grib2 2026-04-30 04:29 1.5M
20260430T00Z_MSC_GDPS_SpecificHumidity_IsbL-1000_LatLon0.15_PT105H.grib2 2026-04-30 04:29 1.5M
20260430T00Z_MSC_GDPS_SpecificHumidity_IsbL-1015_LatLon0.15_PT105H.grib2 2026-04-30 04:29 1.5M
20260430T00Z_MSC_GDPS_SpecificHumidity_Sfc_LatLon0.15_PT105H.grib2 2026-04-30 04:29 683K
20260430T00Z_MSC_GDPS_Thickness_IsbL-0850to0700_LatLon0.15_PT105H.grib2 2026-04-30 04:29 467K
20260430T00Z_MSC_GDPS_Thickness_IsbL-1000to0500_LatLon0.15_PT105H.grib2 2026-04-30 04:29 372K
20260430T00Z_MSC_GDPS_Thickness_IsbL-1000to0850_LatLon0.15_PT105H.grib2 2026-04-30 04:29 492K
20260430T00Z_MSC_GDPS_TotalCloudCover_Sfc_LatLon0.15_PT105H.grib2 2026-04-30 04:29 826K
20260430T00Z_MSC_GDPS_TotalTotalsIndex_Sfc_LatLon0.15_PT105H.grib2 2026-04-30 04:29 6.2M
20260430T00Z_MSC_GDPS_UVIndex-ClearSky_Sfc_LatLon0.15_PT105H.grib2 2026-04-30 04:51 1.1M
20260430T00Z_MSC_GDPS_UVIndex_Sfc_LatLon0.15_PT105H.grib2 2026-04-30 04:51 1.5M
20260430T00Z_MSC_GDPS_UpwardLongwaveRadiationFlux_NTAtm_LatLon0.15_PT105H.grib2 2026-04-30 04:29 838K
20260430T00Z_MSC_GDPS_VerticalVelocity_IsbL-0200_LatLon0.15_PT105H.grib2 2026-04-30 04:29 928K
20260430T00Z_MSC_GDPS_VerticalVelocity_IsbL-0250_LatLon0.15_PT105H.grib2 2026-04-30 04:29 1.0M
20260430T00Z_MSC_GDPS_VerticalVelocity_IsbL-0500_LatLon0.15_PT105H.grib2 2026-04-30 04:29 1.0M
20260430T00Z_MSC_GDPS_VerticalVelocity_IsbL-0600_LatLon0.15_PT105H.grib2 2026-04-30 04:29 1.1M
20260430T00Z_MSC_GDPS_VerticalVelocity_IsbL-0700_LatLon0.15_PT105H.grib2 2026-04-30 04:29 1.4M
20260430T00Z_MSC_GDPS_VerticalVelocity_IsbL-0850_LatLon0.15_PT105H.grib2 2026-04-30 04:29 1.6M
20260430T00Z_MSC_GDPS_WindChill_Sfc_LatLon0.15_PT105H.grib2 2026-04-30 04:29 5.3M
20260430T00Z_MSC_GDPS_WindDir_AGL-10m_LatLon0.15_PT105H.grib2 2026-04-30 04:29 1.3M
20260430T00Z_MSC_GDPS_WindDir_AGL-120m_LatLon0.15_PT105H.grib2 2026-04-30 04:29 1.3M
20260430T00Z_MSC_GDPS_WindDir_AGL-40m_LatLon0.15_PT105H.grib2 2026-04-30 04:29 1.4M
20260430T00Z_MSC_GDPS_WindDir_AGL-80m_LatLon0.15_PT105H.grib2 2026-04-30 04:29 1.3M
20260430T00Z_MSC_GDPS_WindDir_IsbL-0001_LatLon0.15_PT105H.grib2 2026-04-30 04:29 671K
20260430T00Z_MSC_GDPS_WindDir_IsbL-0005_LatLon0.15_PT105H.grib2 2026-04-30 04:29 823K
20260430T00Z_MSC_GDPS_WindDir_IsbL-0010_LatLon0.15_PT105H.grib2 2026-04-30 04:29 855K
20260430T00Z_MSC_GDPS_WindDir_IsbL-0020_LatLon0.15_PT105H.grib2 2026-04-30 04:29 956K
20260430T00Z_MSC_GDPS_WindDir_IsbL-0030_LatLon0.15_PT105H.grib2 2026-04-30 04:29 939K
20260430T00Z_MSC_GDPS_WindDir_IsbL-0050_LatLon0.15_PT105H.grib2 2026-04-30 04:29 942K
20260430T00Z_MSC_GDPS_WindDir_IsbL-0100_LatLon0.15_PT105H.grib2 2026-04-30 04:29 1.0M
20260430T00Z_MSC_GDPS_WindDir_IsbL-0150_LatLon0.15_PT105H.grib2 2026-04-30 04:29 1.0M
20260430T00Z_MSC_GDPS_WindDir_IsbL-0175_LatLon0.15_PT105H.grib2 2026-04-30 04:29 1.0M
20260430T00Z_MSC_GDPS_WindDir_IsbL-0200_LatLon0.15_PT105H.grib2 2026-04-30 04:29 1.1M
20260430T00Z_MSC_GDPS_WindDir_IsbL-0225_LatLon0.15_PT105H.grib2 2026-04-30 04:29 1.1M
20260430T00Z_MSC_GDPS_WindDir_IsbL-0250_LatLon0.15_PT105H.grib2 2026-04-30 04:29 1.1M
20260430T00Z_MSC_GDPS_WindDir_IsbL-0275_LatLon0.15_PT105H.grib2 2026-04-30 04:29 1.2M
20260430T00Z_MSC_GDPS_WindDir_IsbL-0300_LatLon0.15_PT105H.grib2 2026-04-30 04:29 1.2M
20260430T00Z_MSC_GDPS_WindDir_IsbL-0350_LatLon0.15_PT105H.grib2 2026-04-30 04:29 1.2M
20260430T00Z_MSC_GDPS_WindDir_IsbL-0400_LatLon0.15_PT105H.grib2 2026-04-30 04:29 1.3M
20260430T00Z_MSC_GDPS_WindDir_IsbL-0450_LatLon0.15_PT105H.grib2 2026-04-30 04:29 1.3M
20260430T00Z_MSC_GDPS_WindDir_IsbL-0500_LatLon0.15_PT105H.grib2 2026-04-30 04:29 1.3M
20260430T00Z_MSC_GDPS_WindDir_IsbL-0550_LatLon0.15_PT105H.grib2 2026-04-30 04:29 1.3M
20260430T00Z_MSC_GDPS_WindDir_IsbL-0600_LatLon0.15_PT105H.grib2 2026-04-30 04:29 1.4M
20260430T00Z_MSC_GDPS_WindDir_IsbL-0650_LatLon0.15_PT105H.grib2 2026-04-30 04:29 1.5M
20260430T00Z_MSC_GDPS_WindDir_IsbL-0700_LatLon0.15_PT105H.grib2 2026-04-30 04:29 1.6M
20260430T00Z_MSC_GDPS_WindDir_IsbL-0750_LatLon0.15_PT105H.grib2 2026-04-30 04:29 1.6M
20260430T00Z_MSC_GDPS_WindDir_IsbL-0800_LatLon0.15_PT105H.grib2 2026-04-30 04:29 1.8M
20260430T00Z_MSC_GDPS_WindDir_IsbL-0850_LatLon0.15_PT105H.grib2 2026-04-30 04:29 1.9M
20260430T00Z_MSC_GDPS_WindDir_IsbL-0875_LatLon0.15_PT105H.grib2 2026-04-30 04:29 1.9M
20260430T00Z_MSC_GDPS_WindDir_IsbL-0900_LatLon0.15_PT105H.grib2 2026-04-30 04:29 1.9M
20260430T00Z_MSC_GDPS_WindDir_IsbL-0925_LatLon0.15_PT105H.grib2 2026-04-30 04:29 1.9M
20260430T00Z_MSC_GDPS_WindDir_IsbL-0950_LatLon0.15_PT105H.grib2 2026-04-30 04:29 1.9M
20260430T00Z_MSC_GDPS_WindDir_IsbL-0970_LatLon0.15_PT105H.grib2 2026-04-30 04:29 2.0M
20260430T00Z_MSC_GDPS_WindDir_IsbL-0985_LatLon0.15_PT105H.grib2 2026-04-30 04:29 2.0M
20260430T00Z_MSC_GDPS_WindDir_IsbL-1000_LatLon0.15_PT105H.grib2 2026-04-30 04:29 2.0M
20260430T00Z_MSC_GDPS_WindDir_IsbL-1015_LatLon0.15_PT105H.grib2 2026-04-30 04:29 2.0M
20260430T00Z_MSC_GDPS_WindGust-Max_AGL-10m_LatLon0.15_PT105H.grib2 2026-04-30 04:29 2.2M
20260430T00Z_MSC_GDPS_WindGust-Min_AGL-10m_LatLon0.15_PT105H.grib2 2026-04-30 04:29 2.2M
20260430T00Z_MSC_GDPS_WindGust_AGL-10m_LatLon0.15_PT105H.grib2 2026-04-30 04:29 2.2M
20260430T00Z_MSC_GDPS_WindSpeed_AGL-10m_LatLon0.15_PT105H.grib2 2026-04-30 04:29 1.3M
20260430T00Z_MSC_GDPS_WindSpeed_AGL-120m_LatLon0.15_PT105H.grib2 2026-04-30 04:29 1.2M
20260430T00Z_MSC_GDPS_WindSpeed_AGL-40m_LatLon0.15_PT105H.grib2 2026-04-30 04:29 1.2M
20260430T00Z_MSC_GDPS_WindSpeed_AGL-80m_LatLon0.15_PT105H.grib2 2026-04-30 04:29 1.2M
20260430T00Z_MSC_GDPS_WindSpeed_IsbL-0001_LatLon0.15_PT105H.grib2 2026-04-30 04:29 642K
20260430T00Z_MSC_GDPS_WindSpeed_IsbL-0005_LatLon0.15_PT105H.grib2 2026-04-30 04:29 690K
20260430T00Z_MSC_GDPS_WindSpeed_IsbL-0010_LatLon0.15_PT105H.grib2 2026-04-30 04:29 625K
20260430T00Z_MSC_GDPS_WindSpeed_IsbL-0020_LatLon0.15_PT105H.grib2 2026-04-30 04:29 665K
20260430T00Z_MSC_GDPS_WindSpeed_IsbL-0030_LatLon0.15_PT105H.grib2 2026-04-30 04:29 862K
20260430T00Z_MSC_GDPS_WindSpeed_IsbL-0050_LatLon0.15_PT105H.grib2 2026-04-30 04:29 906K
20260430T00Z_MSC_GDPS_WindSpeed_IsbL-0100_LatLon0.15_PT105H.grib2 2026-04-30 04:29 1.1M
20260430T00Z_MSC_GDPS_WindSpeed_IsbL-0150_LatLon0.15_PT105H.grib2 2026-04-30 04:29 943K
20260430T00Z_MSC_GDPS_WindSpeed_IsbL-0175_LatLon0.15_PT105H.grib2 2026-04-30 04:29 1.0M
20260430T00Z_MSC_GDPS_WindSpeed_IsbL-0200_LatLon0.15_PT105H.grib2 2026-04-30 04:29 1.1M
20260430T00Z_MSC_GDPS_WindSpeed_IsbL-0225_LatLon0.15_PT105H.grib2 2026-04-30 04:29 1.1M
20260430T00Z_MSC_GDPS_WindSpeed_IsbL-0250_LatLon0.15_PT105H.grib2 2026-04-30 04:29 1.1M
20260430T00Z_MSC_GDPS_WindSpeed_IsbL-0275_LatLon0.15_PT105H.grib2 2026-04-30 04:29 1.1M
20260430T00Z_MSC_GDPS_WindSpeed_IsbL-0300_LatLon0.15_PT105H.grib2 2026-04-30 04:29 1.1M
20260430T00Z_MSC_GDPS_WindSpeed_IsbL-0350_LatLon0.15_PT105H.grib2 2026-04-30 04:29 1.1M
20260430T00Z_MSC_GDPS_WindSpeed_IsbL-0400_LatLon0.15_PT105H.grib2 2026-04-30 04:29 1.1M
20260430T00Z_MSC_GDPS_WindSpeed_IsbL-0450_LatLon0.15_PT105H.grib2 2026-04-30 04:29 1.1M
20260430T00Z_MSC_GDPS_WindSpeed_IsbL-0500_LatLon0.15_PT105H.grib2 2026-04-30 04:29 1.1M
20260430T00Z_MSC_GDPS_WindSpeed_IsbL-0550_LatLon0.15_PT105H.grib2 2026-04-30 04:29 1.1M
20260430T00Z_MSC_GDPS_WindSpeed_IsbL-0600_LatLon0.15_PT105H.grib2 2026-04-30 04:29 1.1M
20260430T00Z_MSC_GDPS_WindSpeed_IsbL-0650_LatLon0.15_PT105H.grib2 2026-04-30 04:29 1.2M
20260430T00Z_MSC_GDPS_WindSpeed_IsbL-0700_LatLon0.15_PT105H.grib2 2026-04-30 04:29 1.5M
20260430T00Z_MSC_GDPS_WindSpeed_IsbL-0750_LatLon0.15_PT105H.grib2 2026-04-30 04:29 1.5M
20260430T00Z_MSC_GDPS_WindSpeed_IsbL-0800_LatLon0.15_PT105H.grib2 2026-04-30 04:29 1.6M
20260430T00Z_MSC_GDPS_WindSpeed_IsbL-0850_LatLon0.15_PT105H.grib2 2026-04-30 04:29 1.7M
20260430T00Z_MSC_GDPS_WindSpeed_IsbL-0875_LatLon0.15_PT105H.grib2 2026-04-30 04:29 1.8M
20260430T00Z_MSC_GDPS_WindSpeed_IsbL-0900_LatLon0.15_PT105H.grib2 2026-04-30 04:29 1.8M
20260430T00Z_MSC_GDPS_WindSpeed_IsbL-0925_LatLon0.15_PT105H.grib2 2026-04-30 04:29 1.9M
20260430T00Z_MSC_GDPS_WindSpeed_IsbL-0950_LatLon0.15_PT105H.grib2 2026-04-30 04:29 1.9M
20260430T00Z_MSC_GDPS_WindSpeed_IsbL-0970_LatLon0.15_PT105H.grib2 2026-04-30 04:29 1.9M
20260430T00Z_MSC_GDPS_WindSpeed_IsbL-0985_LatLon0.15_PT105H.grib2 2026-04-30 04:29 1.8M
20260430T00Z_MSC_GDPS_WindSpeed_IsbL-1000_LatLon0.15_PT105H.grib2 2026-04-30 04:29 1.8M
20260430T00Z_MSC_GDPS_WindSpeed_IsbL-1015_LatLon0.15_PT105H.grib2 2026-04-30 04:29 1.8M
20260430T00Z_MSC_GDPS_WindU_AGL-10m_LatLon0.15_PT105H.grib2 2026-04-30 04:29 1.6M
20260430T00Z_MSC_GDPS_WindU_AGL-120m_LatLon0.15_PT105H.grib2 2026-04-30 04:29 962K
20260430T00Z_MSC_GDPS_WindU_AGL-40m_LatLon0.15_PT105H.grib2 2026-04-30 04:29 960K
20260430T00Z_MSC_GDPS_WindU_AGL-80m_LatLon0.15_PT105H.grib2 2026-04-30 04:29 963K
20260430T00Z_MSC_GDPS_WindU_IsbL-0001_LatLon0.15_PT105H.grib2 2026-04-30 04:29 499K
20260430T00Z_MSC_GDPS_WindU_IsbL-0005_LatLon0.15_PT105H.grib2 2026-04-30 04:29 688K
20260430T00Z_MSC_GDPS_WindU_IsbL-0010_LatLon0.15_PT105H.grib2 2026-04-30 04:29 698K
20260430T00Z_MSC_GDPS_WindU_IsbL-0020_LatLon0.15_PT105H.grib2 2026-04-30 04:29 729K
20260430T00Z_MSC_GDPS_WindU_IsbL-0030_LatLon0.15_PT105H.grib2 2026-04-30 04:29 736K
20260430T00Z_MSC_GDPS_WindU_IsbL-0050_LatLon0.15_PT105H.grib2 2026-04-30 04:29 766K
20260430T00Z_MSC_GDPS_WindU_IsbL-0100_LatLon0.15_PT105H.grib2 2026-04-30 04:29 921K
20260430T00Z_MSC_GDPS_WindU_IsbL-0150_LatLon0.15_PT105H.grib2 2026-04-30 04:29 1.0M
20260430T00Z_MSC_GDPS_WindU_IsbL-0175_LatLon0.15_PT105H.grib2 2026-04-30 04:29 1.0M
20260430T00Z_MSC_GDPS_WindU_IsbL-0200_LatLon0.15_PT105H.grib2 2026-04-30 04:29 837K
20260430T00Z_MSC_GDPS_WindU_IsbL-0225_LatLon0.15_PT105H.grib2 2026-04-30 04:29 849K
20260430T00Z_MSC_GDPS_WindU_IsbL-0250_LatLon0.15_PT105H.grib2 2026-04-30 04:29 852K
20260430T00Z_MSC_GDPS_WindU_IsbL-0275_LatLon0.15_PT105H.grib2 2026-04-30 04:29 881K
20260430T00Z_MSC_GDPS_WindU_IsbL-0300_LatLon0.15_PT105H.grib2 2026-04-30 04:29 873K
20260430T00Z_MSC_GDPS_WindU_IsbL-0350_LatLon0.15_PT105H.grib2 2026-04-30 04:29 885K
20260430T00Z_MSC_GDPS_WindU_IsbL-0400_LatLon0.15_PT105H.grib2 2026-04-30 04:29 887K
20260430T00Z_MSC_GDPS_WindU_IsbL-0450_LatLon0.15_PT105H.grib2 2026-04-30 04:29 1.1M
20260430T00Z_MSC_GDPS_WindU_IsbL-0500_LatLon0.15_PT105H.grib2 2026-04-30 04:29 1.1M
20260430T00Z_MSC_GDPS_WindU_IsbL-0550_LatLon0.15_PT105H.grib2 2026-04-30 04:29 1.1M
20260430T00Z_MSC_GDPS_WindU_IsbL-0600_LatLon0.15_PT105H.grib2 2026-04-30 04:29 1.1M
20260430T00Z_MSC_GDPS_WindU_IsbL-0650_LatLon0.15_PT105H.grib2 2026-04-30 04:29 1.2M
20260430T00Z_MSC_GDPS_WindU_IsbL-0700_LatLon0.15_PT105H.grib2 2026-04-30 04:29 1.2M
20260430T00Z_MSC_GDPS_WindU_IsbL-0750_LatLon0.15_PT105H.grib2 2026-04-30 04:29 1.3M
20260430T00Z_MSC_GDPS_WindU_IsbL-0800_LatLon0.15_PT105H.grib2 2026-04-30 04:29 1.4M
20260430T00Z_MSC_GDPS_WindU_IsbL-0850_LatLon0.15_PT105H.grib2 2026-04-30 04:29 1.4M
20260430T00Z_MSC_GDPS_WindU_IsbL-0875_LatLon0.15_PT105H.grib2 2026-04-30 04:29 1.5M
20260430T00Z_MSC_GDPS_WindU_IsbL-0900_LatLon0.15_PT105H.grib2 2026-04-30 04:29 1.5M
20260430T00Z_MSC_GDPS_WindU_IsbL-0925_LatLon0.15_PT105H.grib2 2026-04-30 04:29 1.5M
20260430T00Z_MSC_GDPS_WindU_IsbL-0950_LatLon0.15_PT105H.grib2 2026-04-30 04:30 1.4M
20260430T00Z_MSC_GDPS_WindU_IsbL-0970_LatLon0.15_PT105H.grib2 2026-04-30 04:30 1.4M
20260430T00Z_MSC_GDPS_WindU_IsbL-0985_LatLon0.15_PT105H.grib2 2026-04-30 04:30 1.4M
20260430T00Z_MSC_GDPS_WindU_IsbL-1000_LatLon0.15_PT105H.grib2 2026-04-30 04:30 1.7M
20260430T00Z_MSC_GDPS_WindU_IsbL-1015_LatLon0.15_PT105H.grib2 2026-04-30 04:30 1.6M
20260430T00Z_MSC_GDPS_WindV_AGL-10m_LatLon0.15_PT105H.grib2 2026-04-30 04:30 1.5M
20260430T00Z_MSC_GDPS_WindV_AGL-120m_LatLon0.15_PT105H.grib2 2026-04-30 04:30 957K
20260430T00Z_MSC_GDPS_WindV_AGL-40m_LatLon0.15_PT105H.grib2 2026-04-30 04:30 951K
20260430T00Z_MSC_GDPS_WindV_AGL-80m_LatLon0.15_PT105H.grib2 2026-04-30 04:30 957K
20260430T00Z_MSC_GDPS_WindV_IsbL-0001_LatLon0.15_PT105H.grib2 2026-04-30 04:30 777K
20260430T00Z_MSC_GDPS_WindV_IsbL-0005_LatLon0.15_PT105H.grib2 2026-04-30 04:30 852K
20260430T00Z_MSC_GDPS_WindV_IsbL-0010_LatLon0.15_PT105H.grib2 2026-04-30 04:30 881K
20260430T00Z_MSC_GDPS_WindV_IsbL-0020_LatLon0.15_PT105H.grib2 2026-04-30 04:30 856K
20260430T00Z_MSC_GDPS_WindV_IsbL-0030_LatLon0.15_PT105H.grib2 2026-04-30 04:30 857K
20260430T00Z_MSC_GDPS_WindV_IsbL-0050_LatLon0.15_PT105H.grib2 2026-04-30 04:30 1.0M
20260430T00Z_MSC_GDPS_WindV_IsbL-0100_LatLon0.15_PT105H.grib2 2026-04-30 04:30 1.1M
20260430T00Z_MSC_GDPS_WindV_IsbL-0150_LatLon0.15_PT105H.grib2 2026-04-30 04:30 1.0M
20260430T00Z_MSC_GDPS_WindV_IsbL-0175_LatLon0.15_PT105H.grib2 2026-04-30 04:30 1.0M
20260430T00Z_MSC_GDPS_WindV_IsbL-0200_LatLon0.15_PT105H.grib2 2026-04-30 04:30 835K
20260430T00Z_MSC_GDPS_WindV_IsbL-0225_LatLon0.15_PT105H.grib2 2026-04-30 04:30 843K
20260430T00Z_MSC_GDPS_WindV_IsbL-0250_LatLon0.15_PT105H.grib2 2026-04-30 04:30 843K
20260430T00Z_MSC_GDPS_WindV_IsbL-0275_LatLon0.15_PT105H.grib2 2026-04-30 04:30 872K
20260430T00Z_MSC_GDPS_WindV_IsbL-0300_LatLon0.15_PT105H.grib2 2026-04-30 04:30 920K
20260430T00Z_MSC_GDPS_WindV_IsbL-0350_LatLon0.15_PT105H.grib2 2026-04-30 04:30 930K
20260430T00Z_MSC_GDPS_WindV_IsbL-0400_LatLon0.15_PT105H.grib2 2026-04-30 04:30 874K
20260430T00Z_MSC_GDPS_WindV_IsbL-0450_LatLon0.15_PT105H.grib2 2026-04-30 04:30 876K
20260430T00Z_MSC_GDPS_WindV_IsbL-0500_LatLon0.15_PT105H.grib2 2026-04-30 04:30 1.1M
20260430T00Z_MSC_GDPS_WindV_IsbL-0550_LatLon0.15_PT105H.grib2 2026-04-30 04:30 1.1M
20260430T00Z_MSC_GDPS_WindV_IsbL-0600_LatLon0.15_PT105H.grib2 2026-04-30 04:30 1.1M
20260430T00Z_MSC_GDPS_WindV_IsbL-0650_LatLon0.15_PT105H.grib2 2026-04-30 04:30 1.2M
20260430T00Z_MSC_GDPS_WindV_IsbL-0700_LatLon0.15_PT105H.grib2 2026-04-30 04:30 1.2M
20260430T00Z_MSC_GDPS_WindV_IsbL-0750_LatLon0.15_PT105H.grib2 2026-04-30 04:30 1.3M
20260430T00Z_MSC_GDPS_WindV_IsbL-0800_LatLon0.15_PT105H.grib2 2026-04-30 04:30 1.3M
20260430T00Z_MSC_GDPS_WindV_IsbL-0850_LatLon0.15_PT105H.grib2 2026-04-30 04:30 1.4M
20260430T00Z_MSC_GDPS_WindV_IsbL-0875_LatLon0.15_PT105H.grib2 2026-04-30 04:30 1.4M
20260430T00Z_MSC_GDPS_WindV_IsbL-0900_LatLon0.15_PT105H.grib2 2026-04-30 04:30 1.4M
20260430T00Z_MSC_GDPS_WindV_IsbL-0925_LatLon0.15_PT105H.grib2 2026-04-30 04:30 1.4M
20260430T00Z_MSC_GDPS_WindV_IsbL-0950_LatLon0.15_PT105H.grib2 2026-04-30 04:30 1.4M
20260430T00Z_MSC_GDPS_WindV_IsbL-0970_LatLon0.15_PT105H.grib2 2026-04-30 04:30 1.4M
20260430T00Z_MSC_GDPS_WindV_IsbL-0985_LatLon0.15_PT105H.grib2 2026-04-30 04:30 1.4M
20260430T00Z_MSC_GDPS_WindV_IsbL-1000_LatLon0.15_PT105H.grib2 2026-04-30 04:30 1.7M
20260430T00Z_MSC_GDPS_WindV_IsbL-1015_LatLon0.15_PT105H.grib2 2026-04-30 04:30 1.6M